Flag for Canada Weather past 2 weeks in Saskatoon, Saskatchewan, Canada

Now
59 °F

Scattered clouds.


Feels Like: 57 °F
Forecast: 53 / 65 °F
Wind: 10 mph from Northwest

Location: Saskatoon Weather Station

Current Time: Jul 5, 2015 at 9:42:52 AM

Latest Report: Jul 5, 2015 at 9:00 AM


Visibility: 10 mi

Pressure: 30.02 "Hg

Humidity: 72%

Dew point: 50 °F

Location of SaskatoonLocation

Historic Weather in Saskatoon — Graph

°F

Saskatoon temperature yesterday

Maximum temperature yesterday: 79 °F (at 2:00 PM)
Minimum temperature yesterday: 59 °F (at 10:00 PM)
Average temperature yesterday: 68 °F

Past Weeks' High & Low Weather Summary

 TemperatureHumidityPressure
High91 °F (Jul 3, 3:00 PM)100% (Jun 22, 4:00 AM)30.11 "Hg (Jun 22, 4:00 AM)
Low45 °F (Jun 22, 3:00 AM)23% (Jun 25, 6:00 PM)29.72 "Hg (Jul 3, 9:00 PM)
Average68 °F64%29.97 "Hg
* Reported Jun 20 8:00 AM — Jul 5 8:00 AM, Saskatoon, Weather by CustomWeather, © 2015

Note: Actual official high and low records may vary slightly from our data, if they occured in-between our weather recording intervals... More about our weather records

Advertising

Saskatoon weather history for previous 24 hours

 ConditionsComfort  
Time TempWeatherWind HumidityBarometerVisibility
8:00 AM
Sun, Jul 5
57 °FSunny.9 mph77%30.01 "Hg15 mi
7:00 AM55 °FPassing clouds.8 mph82%30.00 "Hg10 mi
6:00 AM52 °FScattered clouds.7 mph88%29.98 "Hg6 mi
5:00 AM48 °FScattered clouds.7 mph94%29.98 "Hg6 mi
4:00 AM48 °FPassing clouds.7 mph94%29.98 "Hg6 mi
3:00 AM54 °FPassing clouds.7 mph82%29.96 "Hg6 mi
2:00 AM57 °FPassing clouds.9 mph72%29.94 "Hg5 mi
1:00 AM59 °FPassing clouds.7 mph72%29.90 "Hg5 mi
12:00 AM63 °FMostly cloudy.9 mph59%29.90 "Hg4 mi
11:00 PM
Sat, Jul 4
59 °FOvercast.7 mph72%29.91 "Hg2 mi
10:00 PM59 °FOvercast.5 mph68%29.90 "Hg2 mi
9:00 PM63 °FOvercast.2 mph59%29.89 "Hg1 mi
8:00 PM64 °FHigh level clouds.5 mph56%29.88 "Hg1 mi
7:00 PM68 °FHigh level clouds.8 mph43%29.87 "Hg1 mi
6:00 PM70 °FHigh level clouds.16 mph46%29.86 "Hg1 mi
5:00 PM75 °FHigh level clouds.14 mph47%29.85 "Hg1 mi
4:00 PM75 °FHigh level clouds.14 mph50%29.84 "Hg1 mi
3:00 PM77 °FHigh level clouds.16 mph51%29.83 "Hg1 mi
2:00 PM79 °FSunny.17 mph37%29.81 "Hg3 mi
1:00 PM77 °FHigh level clouds.13 mph39%29.80 "Hg3 mi
12:00 PM77 °FMostly cloudy.14 mph39%29.80 "Hg3 mi
11:00 AM73 °FPartly sunny.12 mph50%29.81 "Hg3 mi
10:00 AM68 °FDense fog.10 mph69%29.80 "Hg1 mi
9:00 AM66 °FDense fog.No wind78%29.79 "Hg1 mi
Weather by CustomWeather, © 2015

See weather overviewHow to use our weather pages